FW6992 Weather Reports


Display with metric or nautical units.
time (UTC)temp
F
wind
direction
speed
MPH
gust
MPH
rain 1hr
in
rain 24hr
in
rain mn
in
humidity
%
barometer
mb
20260831110255 71 150 0.0 1.0 0.00 0.00 0.00 94 1022.2
20260831105753 71 58 0.0 0.0 0.00 0.00 0.00 94 1022.2
20260831105249 71 269 0.0 0.0 0.00 0.00 0.00 94 1022.0
20260831104744 71 277 0.0 0.0 0.00 0.00 0.00 94 1022.1
20260831104241 71 43 0.0 0.0 0.00 0.00 0.00 94 1022.1
20260831103740 71 201 0.0 0.0 0.00 0.00 0.00 94 1021.9
20260831103236 71 187 0.0 0.0 0.00 0.00 0.00 94 1021.7
20260831102735 71 177 0.0 0.0 0.00 0.00 0.00 94 1021.8
20260831102230 71 233 0.0 0.0 0.00 0.00 0.00 94 1021.8
20260831101726 71 330 0.0 1.0 0.00 0.00 0.00 94 1021.8
20260831101221 71 256 0.0 0.0 0.00 0.00 0.00 94 1021.6
20260831100717 71 134 0.0 1.0 0.00 0.00 0.00 94 1021.8
20260831100213 71 128 1.0 1.0 0.00 0.00 0.00 94 1021.7
20260831095711 71 330 0.0 1.0 0.00 0.00 0.00 94 1021.8
20260831095207 71 311 0.0 0.0 0.00 0.00 0.00 94 1021.8
20260831094702 71 150 0.0 1.0 0.00 0.00 0.00 94 1021.8
20260831094158 71 163 0.0 0.0 0.00 0.00 0.00 94 1022.0
20260831093653 71 311 0.0 1.0 0.00 0.00 0.00 94 1022.0
20260831093149 71 290 0.0 0.0 0.00 0.00 0.00 94 1022.0
20260831092645 71 314 0.0 2.0 0.00 0.00 0.00 94 1021.8
20260831092141 71 251 0.0 1.0 0.00 0.00 0.00 94 1021.8
20260831091640 71 318 0.0 0.0 0.00 0.00 0.00 94 1022.0
20260831091136 71 342 0.0 0.0 0.00 0.00 0.00 94 1022.1
20260831090631 71 237 0.0 1.0 0.00 0.00 0.00 94 1021.9
20260831090127 71 150 0.0 0.0 0.00 0.00 0.00 94 1022.1
20260831085622 71 341 0.0 0.0 0.00 0.00 0.00 94 1022.0
20260831085117 71 255 0.0 1.0 0.00 0.00 0.00 94 1021.9
20260831084613 71 256 0.0 0.0 0.00 0.00 0.00 94 1021.8
20260831084109 71 150 0.0 0.0 0.00 0.00 0.00 94 1022.0
20260831083605 71 150 0.0 0.0 0.00 0.00 0.00 94 1021.9
20260831083105 71 245 0.0 0.0 0.00 0.00 0.00 94 1022.0
20260831082604 71 110 0.0 0.0 0.00 0.00 0.00 94 1021.8
20260831082059 71 320 0.0 0.0 0.00 0.00 0.00 94 1021.8
20260831081555 71 156 0.0 0.0 0.00 0.00 0.00 94 1021.6
20260831081051 71 267 0.0 1.0 0.00 0.00 0.00 94 1022.1
20260831080546 71 277 0.0 0.0 0.00 0.00 0.00 94 1021.8
20260831080042 71 274 0.0 0.0 0.00 0.00 0.00 93 1021.9
20260831075542 71 313 0.0 1.0 0.00 0.00 0.00 93 1021.5
20260831075037 71 204 0.0 0.0 0.00 0.00 0.00 93 1021.7
20260831074537 71 156 0.0 0.0 0.00 0.00 0.00 93 1021.6
20260831074037 71 83 0.0 0.0 0.00 0.00 0.00 93 1021.8
20260831073532 71 245 0.0 0.0 0.00 0.00 0.00 93 1021.8
20260831073031 71 277 0.0 0.0 0.00 0.00 0.00 93 1021.9
20260831072526 71 256 0.0 0.0 0.00 0.00 0.00 93 1021.6
20260831072023 71 256 0.0 0.0 0.00 0.00 0.00 93 1021.6
20260831071521 71 256 0.0 0.0 0.00 0.00 0.00 93 1021.7
20260831071017 71 150 0.0 0.0 0.00 0.00 0.00 93 1021.7
20260831070515 71 163 0.0 0.0 0.00 0.00 0.00 93 1021.7
20260831070011 71 163 0.0 0.0 0.00 0.00 0.00 93 1021.8
20260831065508 71 163 0.0 0.0 0.00 0.00 0.00 93 1021.8
20260831065003 71 163 0.0 0.0 0.00 0.00 0.00 93 1021.7
20260831064458 72 318 0.0 0.0 0.00 0.00 0.00 93 1021.8
20260831063954 72 318 0.0 0.0 0.00 0.00 0.00 93 1021.9
20260831063450 72 318 0.0 0.0 0.00 0.00 0.00 93 1022.0
20260831062948 72 318 0.0 0.0 0.00 0.00 0.00 93 1022.0
20260831062445 72 318 0.0 0.0 0.00 0.00 0.00 93 1021.9
20260831061943 72 318 0.0 0.0 0.00 0.00 0.00 93 1022.0
20260831061442 72 318 0.0 0.0 0.00 0.00 0.00 93 1021.9
20260831060939 72 163 0.0 0.0 0.00 0.00 0.00 93 1022.2
20260831060433 72 256 0.0 0.0 0.00 0.00 0.00 93 1022.2
20260831055932 72 256 0.0 0.0 0.00 0.00 0.00 93 1022.1
20260831055427 72 256 0.0 0.0 0.00 0.00 0.00 93 1022.0
20260831054923 72 256 0.0 0.0 0.00 0.00 0.00 93 1022.0
20260831054418 72 336 0.0 0.0 0.00 0.00 0.00 93 1022.1
20260831053917 72 336 0.0 0.0 0.00 0.00 0.00 93 1022.3
20260831053415 72 336 0.0 0.0 0.00 0.00 0.00 93 1022.3
20260831052910 72 336 0.0 0.0 0.00 0.00 0.00 93 1022.5
20260831052409 73 336 0.0 0.0 0.00 0.00 0.00 93 1022.3
20260831051908 73 336 0.0 0.0 0.00 0.00 0.00 93 1022.5
20260831051406 73 336 0.0 0.0 0.00 0.00 0.00 93 1022.2
20260831050901 73 336 0.0 0.0 0.00 0.00 0.00 93 1022.4
20260831050356 73 336 0.0 0.0 0.00 0.00 0.00 93 1022.7
20260831045855 73 336 0.0 0.0 0.00 0.00 0.00 93 1022.3
20260831045355 73 336 0.0 0.0 0.00 0.00 0.00 93 1022.4
20260831044850 73 336 0.0 0.0 0.00 0.00 0.00 93 1022.2
20260831044345 73 251 0.0 0.0 0.00 0.00 0.00 93 1022.5
20260831043841 73 336 0.0 0.0 0.00 0.00 0.00 93 1022.5
20260831043340 73 336 0.0 0.0 0.00 0.00 0.00 93 1022.7
20260831042836 73 336 0.0 0.0 0.00 0.00 0.00 93 1022.7
20260831042335 73 336 0.0 0.0 0.00 0.00 0.00 93 1022.1
20260831041831 73 336 0.0 0.0 0.00 0.00 0.00 93 1022.5
20260831041330 73 336 0.0 0.0 0.00 0.00 0.00 93 1022.4
20260831040825 73 336 0.0 0.0 0.00 0.00 0.00 92 1022.3
20260831040324 73 134 0.0 0.0 0.00 0.00 0.00 92 1022.4
20260831035823 73 334 0.0 1.0 0.00 0.11 0.11 92 1023.0
20260831035321 73 290 0.0 0.0 0.00 0.11 0.11 92 1022.4
20260831034821 73 290 0.0 1.0 0.00 0.11 0.11 92 1022.8
20260831034318 73 138 0.0 0.0 0.00 0.11 0.11 92 1022.9
20260831033812 73 343 0.0 0.0 0.00 0.11 0.11 92 1023.1
20260831033312 73 65 0.0 1.0 0.00 0.11 0.11 92 1023.1
20260831032808 73 265 0.0 0.0 0.00 0.11 0.11 92 1023.3
20260831032306 73 127 0.0 1.0 0.00 0.11 0.11 92 1023.4
20260831031757 73 147 0.0 0.0 0.00 0.11 0.11 92 1023.3
20260831031257 73 256 0.0 0.0 0.00 0.11 0.11 92 1023.4
20260831030752 73 263 0.0 0.0 0.00 0.11 0.11 92 1023.3
20260831030250 74 263 0.0 0.0 0.00 0.11 0.11 91 1023.4
20260831025749 74 320 0.0 1.0 0.00 0.11 0.11 91 1023.3
20260831025244 74 151 0.0 0.0 0.00 0.11 0.11 91 1023.4
20260831024740 74 140 0.0 1.0 0.00 0.11 0.11 91 1023.2
20260831024233 74 226 0.0 0.0 0.00 0.11 0.11 91 1023.5
20260831023732 74 256 0.0 0.0 0.00 0.11 0.11 91 1023.4
20260831023225 74 131 0.0 2.0 0.00 0.11 0.11 91 1023.2
20260831022720 74 14 0.0 1.0 0.00 0.11 0.11 92 1023.3
20260831022215 74 50 0.0 0.0 0.00 0.11 0.11 92 1023.2
20260831021714 74 50 0.0 0.0 0.00 0.11 0.11 92 1023.2
20260831021209 74 50 0.0 0.0 0.00 0.11 0.11 92 1023.2
20260831020706 74 50 0.0 0.0 0.00 0.11 0.11 92 1023.3
20260831020205 74 50 0.0 0.0 0.00 0.11 0.11 92 1023.2
20260831015700 74 50 0.0 0.0 0.00 0.11 0.11 92 1023.2
20260831015155 74 50 0.0 0.0 0.00 0.11 0.11 92 1023.3
20260831014650 74 251 0.0 0.0 0.00 0.11 0.11 91 1023.2
20260831014145 74 251 0.0 0.0 0.00 0.11 0.11 91 1023.1
20260831013641 74 36 0.0 0.0 0.00 0.11 0.11 91 1022.9
20260831013141 74 36 0.0 0.0 0.00 0.11 0.11 91 1022.9
20260831012636 75 71 0.0 0.0 0.00 0.11 0.11 92 1022.9
20260831012131 75 71 0.0 0.0 0.00 0.11 0.11 92 1022.9
20260831011630 75 71 0.0 0.0 0.00 0.11 0.11 92 1022.8
20260831011126 75 330 0.0 0.0 0.00 0.11 0.11 92 1022.7
20260831010622 75 343 0.0 0.0 0.00 0.11 0.11 92 1022.8
20260831010117 75 138 0.0 0.0 0.00 0.11 0.11 92 1022.7
20260831005616 75 354 0.0 0.0 0.14 0.11 0.11 91 1022.7
20260831005112 75 354 0.0 0.0 0.14 0.11 0.11 91 1022.4
20260831004607 75 354 0.0 0.0 0.00 0.00 0.00 90 1022.5
20260831004103 75 290 0.0 0.0 0.00 0.00 0.00 91 1022.4
20260831003559 75 290 0.0 0.0 0.00 0.00 0.00 90 1022.2
20260831003055 75 125 0.0 0.0 0.00 0.00 0.00 91 1022.2
20260831002553 75 125 0.0 0.0 0.00 0.00 0.00 91 1022.2
20260831002048 75 318 0.0 0.0 0.00 0.09 0.09 91 1022.3
20260831001544 75 124 0.0 1.0 0.00 0.09 0.09 90 1022.1
20260831001041 75 263 0.0 0.0 0.00 0.09 0.09 90 1022.0
20260831000537 75 267 0.0 1.0 0.00 0.09 0.09 89 1022.0
20260831000036 75 175 0.0 0.0 0.00 0.09 0.09 88 1021.9
20260830235535 75 261 0.0 0.0 0.00 0.09 0.09 88 1021.8
20260830235031 75 330 0.0 0.0 0.00 0.09 0.09 88 1021.6
20260830234530 75 134 0.0 0.0 0.00 0.09 0.09 88 1021.7
20260830234026 75 290 0.0 0.0 0.00 0.09 0.09 87 1021.8
20260830233521 76 330 0.0 2.0 0.00 0.09 0.09 87 1021.7
20260830233017 76 135 2.0 2.0 0.12 0.09 0.09 86 1022.0
20260830232513 78 119 1.0 2.0 0.52 0.09 0.09 83 1022.1
20260830232009 80 245 0.0 3.0 0.35 0.06 0.06 75 1022.5
20260830231504 85 150 0.0 0.0 0.00 0.00 0.00 58 1022.0
20260830231003 85 150 0.0 0.0 0.00 0.00 0.00 58 1021.8
20260830230459 85 150 0.0 0.0 0.00 0.00 0.00 58 1021.9
20260830225958 85 150 0.0 0.0 0.00 0.00 0.00 58 1021.8
20260830225454 85 150 0.0 0.0 0.00 0.00 0.00 58 1021.6
20260830224953 85 150 0.0 0.0 0.00 0.00 0.00 58 1021.7
20260830224452 85 150 0.0 0.0 0.00 0.00 0.00 58 1021.7
20260830223949 85 150 0.0 0.0 0.00 0.00 0.00 58 1021.6
20260830223446 85 150 0.0 0.0 0.00 0.00 0.00 58 1021.6
20260830222944 85 150 0.0 0.0 0.00 0.00 0.00 58 1021.5
20260830222440 85 150 0.0 0.0 0.00 0.00 0.00 58 1021.7
20260830221935 85 150 0.0 0.0 0.00 0.00 0.00 58 1021.5
20260830221432 85 251 0.0 0.0 0.00 0.00 0.00 57 1021.7
20260830220927 85 87 0.0 1.0 0.00 0.00 0.00 57 1021.8
20260830220421 86 317 0.0 2.0 0.00 0.00 0.00 57 1021.7
20260830215919 87 290 0.0 0.0 0.00 0.00 0.00 55 1021.7
20260830215414 87 26 0.0 0.0 0.00 0.00 0.00 54 1021.9
20260830214909 87 292 1.0 2.0 0.00 0.00 0.00 56 1021.6
20260830214404 88 137 1.0 2.0 0.00 0.00 0.00 54 1021.8
20260830213858 88 265 1.0 2.0 0.00 0.00 0.00 52 1021.8
20260830213354 88 175 0.0 2.0 0.00 0.00 0.00 53 1021.3
20260830212849 88 347 0.0 2.0 0.00 0.00 0.00 54 1021.8
20260830212345 88 334 4.0 4.0 0.00 0.00 0.00 54 1021.6
20260830211844 88 251 0.0 2.0 0.00 0.00 0.00 51 1021.8
20260830211338 89 172 0.0 2.0 0.00 0.00 0.00 51 1021.3
20260830210834 90 4 0.0 3.0 0.00 0.00 0.00 50 1021.4
20260830210333 89 267 0.0 2.0 0.00 0.00 0.00 54 1021.6
20260830205831 89 239 0.0 3.0 0.00 0.00 0.00 53 1021.4
20260830205325 89 277 2.0 2.0 0.00 0.00 0.00 49 1021.6
20260830204821 89 55 0.0 2.0 0.00 0.00 0.00 49 1021.5
20260830204320 90 46 0.0 3.0 0.00 0.00 0.00 50 1021.7
20260830203816 91 301 2.0 6.0 0.00 0.00 0.00 48 1021.5
20260830203312 90 290 0.0 1.0 0.00 0.00 0.00 50 1021.5
20260830202811 91 242 2.0 2.0 0.00 0.00 0.00 49 1021.6
20260830202306 91 214 0.0 4.0 0.00 0.00 0.00 49 1021.7
20260830201806 91 269 0.0 2.0 0.00 0.00 0.00 50 1021.7
20260830201300 91 298 2.0 4.0 0.00 0.00 0.00 47 1021.8
20260830200756 91 292 0.0 4.0 0.00 0.00 0.00 48 1021.9
20260830200255 91 327 1.0 5.0 0.00 0.00 0.00 47 1022.0
20260830195751 91 264 2.0 2.0 0.00 0.00 0.00 49 1022.1
20260830195250 91 289 2.0 3.0 0.00 0.00 0.00 51 1022.2
20260830194748 90 262 2.0 3.0 0.00 0.00 0.00 49 1022.1
20260830194243 91 187 1.0 4.0 0.00 0.00 0.00 50 1022.3
20260830193737 91 347 2.0 4.0 0.00 0.00 0.00 48 1022.2
20260830193231 91 204 2.0 3.0 0.00 0.00 0.00 50 1022.4
20260830192727 91 153 1.0 2.0 0.00 0.00 0.00 48 1022.1
20260830192222 90 164 2.0 3.0 0.00 0.00 0.00 49 1022.4
20260830191718 90 168 1.0 2.0 0.00 0.00 0.00 50 1022.3
20260830191217 90 330 2.0 3.0 0.00 0.00 0.00 49 1022.5
20260830190714 89 66 0.0 2.0 0.00 0.00 0.00 51 1022.5
20260830190208 89 127 2.0 2.0 0.00 0.00 0.00 51 1022.7
20260830185707 89 232 1.0 3.0 0.00 0.00 0.00 52 1023.0
20260830185203 90 141 2.0 3.0 0.00 0.00 0.00 51 1022.8
20260830184702 91 282 0.0 2.0 0.00 0.00 0.00 54 1023.1
20260830184201 90 357 4.0 4.0 0.00 0.00 0.00 49 1023.3
20260830183701 89 277 1.0 3.0 0.00 0.00 0.00 52 1023.5
20260830183157 89 248 2.0 2.0 0.00 0.00 0.00 55 1023.5
20260830182652 89 261 0.0 3.0 0.00 0.00 0.00 55 1023.8
20260830182149 90 132 2.0 2.0 0.00 0.00 0.00 51 1023.8
20260830181645 90 243 0.0 2.0 0.00 0.00 0.00 56 1023.8
20260830181144 89 230 0.0 2.0 0.00 0.00 0.00 54 1024.2
20260830180643 89 306 0.0 2.0 0.00 0.00 0.00 52 1023.8
20260830180139 89 124 2.0 3.0 0.00 0.00 0.00 51 1024.2
20260830175637 89 332 1.0 2.0 0.00 0.00 0.00 52 1024.2
20260830175132 88 184 0.0 2.0 0.00 0.00 0.00 52 1024.3
20260830174627 89 161 1.0 2.0 0.00 0.00 0.00 54 1024.3
20260830174123 88 323 2.0 3.0 0.00 0.00 0.00 57 1024.2
20260830173618 87 143 0.0 2.0 0.00 0.00 0.00 56 1024.4
20260830173113 87 117 2.0 3.0 0.00 0.00 0.00 55 1024.7
20260830172610 87 248 1.0 2.0 0.00 0.00 0.00 54 1024.8
20260830172106 87 315 2.0 4.0 0.00 0.00 0.00 54 1024.8
20260830171601 86 303 0.0 7.0 0.00 0.00 0.00 55 1024.8
20260830171056 86 190 0.0 3.0 0.00 0.00 0.00 57 1025.2
20260830170550 86 290 0.0 2.0 0.00 0.00 0.00 61 1025.0
20260830170049 85 305 0.0 3.0 0.00 0.00 0.00 62 1025.2
20260830165544 84 86 0.0 1.0 0.00 0.00 0.00 61 1025.2
20260830165040 84 345 0.0 3.0 0.00 0.00 0.00 61 1025.2
20260830164536 84 306 0.0 2.0 0.00 0.00 0.00 63 1025.4
20260830164032 84 330 3.0 5.0 0.00 0.00 0.00 60 1025.4
20260830163529 84 282 2.0 2.0 0.00 0.00 0.00 65 1025.6
20260830163028 83 344 0.0 1.0 0.00 0.00 0.00 65 1025.5
20260830162525 82 163 0.0 2.0 0.00 0.00 0.00 65 1025.5
20260830162024 81 145 0.0 1.0 0.00 0.00 0.00 68 1026.0
20260830161519 81 216 0.0 2.0 0.00 0.00 0.00 70 1025.6
20260830161014 81 96 2.0 3.0 0.00 0.00 0.00 66 1025.5
20260830160510 81 110 0.0 3.0 0.00 0.00 0.00 68 1025.8
20260830160005 82 140 2.0 2.0 0.00 0.00 0.00 65 1025.5
20260830155502 82 151 0.0 3.0 0.00 0.00 0.00 66 1025.8
20260830154957 82 57 2.0 2.0 0.00 0.00 0.00 67 1025.8
20260830154452 82 151 3.0 3.0 0.00 0.00 0.00 67 1025.6
20260830153948 81 58 0.0 3.0 0.00 0.00 0.00 68 1025.7
20260830153444 80 142 1.0 3.0 0.00 0.00 0.00 68 1025.9
20260830152943 80 207 0.0 3.0 0.00 0.00 0.00 70 1026.2
20260830152438 79 167 1.0 3.0 0.00 0.00 0.00 72 1025.9
20260830151937 78 14 1.0 3.0 0.00 0.00 0.00 71 1025.9
20260830151431 79 309 1.0 3.0 0.00 0.00 0.00 72 1025.9
20260830150926 79 313 1.0 3.0 0.00 0.00 0.00 71 1025.7
20260830150426 80 275 0.0 2.0 0.00 0.00 0.00 73 1025.9
20260830145920 80 98 2.0 2.0 0.00 0.00 0.00 72 1026.0
20260830145415 79 128 2.0 2.0 0.00 0.00 0.00 73 1025.9
20260830144910 78 110 0.0 2.0 0.00 0.00 0.00 76 1025.7
20260830144406 78 164 0.0 3.0 0.00 0.00 0.00 78 1025.8
20260830143901 77 290 0.0 3.0 0.00 0.00 0.00 78 1025.9
20260830143356 76 215 2.0 2.0 0.00 0.00 0.00 81 1026.0
20260830142855 75 138 2.0 3.0 0.00 0.00 0.00 82 1025.8
20260830142350 75 317 1.0 3.0 0.00 0.00 0.00 81 1026.0
20260830141846 75 286 1.0 2.0 0.00 0.00 0.00 81 1026.0
20260830141341 75 230 1.0 3.0 0.00 0.00 0.00 82 1025.9
20260830140836 75 272 1.0 2.0 0.00 0.00 0.00 83 1026.3
20260830140330 75 277 0.0 1.0 0.00 0.00 0.00 84 1026.0
20260830135825 74 359 0.0 1.0 0.00 0.00 0.00 84 1026.2
20260830135320 74 354 1.0 2.0 0.00 0.00 0.00 85 1026.2
20260830134816 74 331 2.0 2.0 0.00 0.00 0.00 85 1026.1
20260830134316 73 350 0.0 2.0 0.00 0.00 0.00 85 1026.3
20260830133812 73 270 0.0 2.0 0.00 0.00 0.00 86 1026.2
20260830133307 73 0 1.0 1.0 0.00 0.00 0.00 86 1026.4
20260830132803 73 263 0.0 2.0 0.00 0.00 0.00 86 1026.3
20260830132259 73 245 0.0 1.0 0.00 0.00 0.00 87 1026.4
20260830131757 73 308 0.0 1.0 0.00 0.00 0.00 87 1026.1
20260830131252 73 120 1.0 2.0 0.00 0.00 0.00 87 1026.4
20260830130747 73 311 0.0 1.0 0.00 0.00 0.00 87 1026.5
20260830130242 73 274 0.0 0.0 0.00 0.00 0.00 87 1026.4
20260830125742 73 135 0.0 1.0 0.00 0.00 0.00 86 1026.4
20260830125237 73 290 0.0 1.0 0.00 0.00 0.00 87 1026.4
20260830124734 73 320 0.0 1.0 0.00 0.00 0.00 88 1026.7
20260830124230 73 27 0.0 1.0 0.00 0.00 0.00 87 1026.6
20260830123727 73 168 0.0 2.0 0.00 0.00 0.00 87 1026.6
20260830123223 73 316 0.0 2.0 0.00 0.00 0.00 87 1026.3
20260830122720 73 238 0.0 1.0 0.00 0.00 0.00 88 1026.4
20260830122215 72 110 0.0 2.0 0.00 0.00 0.00 88 1026.3
20260830121710 72 341 0.0 0.0 0.00 0.00 0.00 89 1026.3
20260830121209 71 270 0.0 1.0 0.00 0.00 0.00 89 1026.4
20260830120704 71 159 0.0 0.0 0.00 0.00 0.00 90 1026.4
20260830120201 71 201 0.0 1.0 0.00 0.00 0.00 90 1026.5
20260830115657 71 336 0.0 1.0 0.00 0.00 0.00 91 1026.6
20260830115152 70 245 0.0 0.0 0.00 0.00 0.00 91 1026.3
20260830114649 70 220 0.0 0.0 0.00 0.00 0.00 91 1026.4
20260830114148 70 163 0.0 0.0 0.00 0.00 0.00 91 1026.3
20260830113644 70 251 0.0 0.0 0.00 0.00 0.00 91 1026.3
20260830113138 70 146 0.0 0.0 0.00 0.00 0.00 91 1026.3
20260830112635 70 238 0.0 0.0 0.00 0.00 0.00 91 1026.2
20260830112131 70 343 0.0 0.0 0.00 0.00 0.00 91 1026.3
20260830111626 70 324 0.0 1.0 0.00 0.00 0.00 91 1026.2
20260830111122 69 185 0.0 0.0 0.00 0.00 0.00 91 1026.3
20260830110622 69 181 0.0 0.0 0.00 0.00 0.00 91 1026.0